[ hide orbit diagram ]
For accurate long-term ephemerides, please instead use our Horizons system.This orbit viewer was implemented using two-body methods, and hence should not be used for determining accurate long-term trajectories (over several years or decades) or planetary encounter circumstances.
Orbital Elements at Epoch 2459000.5 (2020-May-31.0) TDB
Reference: JPL 12 (heliocentric ecliptic J2000)
Element | Value | Uncertainty (1-sigma) | Units |
e | .1015307942889002 | 4.9613e-08 | |
a | 1.928161554156707 | 1.176e-08 | au |
q | 1.732393780045856 | 9.8837e-08 | au |
i | 20.44254124770132 | 6.1896e-06 | deg |
node | 203.6158990439116 | 1.5289e-05 | deg |
peri | 283.4542177272842 | 3.7388e-05 | deg |
M | 301.7472629728076 | 3.7605e-05 | deg |
tp | 2459158.744050385140 (2020-Nov-05.24405038) | 0.00010283 | TDB |
period | 977.943029733655 2.68 | 8.9465e-06 2.449e-08 | d yr |
n | .3681196031409384 | 3.3677e-09 | deg/d |
Q | 2.123929328267557 | 1.2954e-08 | au |
|
| | Orbit Determination Parameters
Additional Information
|
[ show covariance matrix ]
Physical Parameter Table
Parameter |
Symbol |
Value |
Units |
Sigma |
Reference |
Notes |
absolute magnitude |
H |
17.8 |
|
n/a |
MPO476972 |
|
|
413469 (2005 GN75) Discovered 2005-Apr-05 by Mt. Lemmon Survey at Mount Lemmon |
Reference: | Last Updated: 2014-11-10 |
|
|